Time,TemperatureF,DewpointF,PressureIn,WindDirection,WindDirectionDegrees,WindSpeedMPH,WindSpeedGustMPH,Humidity,HourlyPrecipIn,Conditions,Clouds,dailyrainin,SoftwareType,DateUTC
2013-01-08 00:00:00,32.1,25.7,30.34,WSW,252,4.0,9.0,77,0.00,,,0.00,WUHU216DAVISVP2,2013-01-08 05:00:00,
2013-01-08 00:01:00,32.1,25.7,30.34,West,266,4.0,9.0,77,0.00,,,0.00,WUHU216DAVISVP2,2013-01-08 05:01:00,
2013-01-08 00:02:00,32.1,25.7,30.34,WNW,284,3.0,9.0,77,0.00,,,0.00,WUHU216DAVISVP2,2013-01-08 05:02:00,
2013-01-08 00:07:00,32.2,25.8,30.34,WNW,283,3.0,8.0,77,0.00,,,0.00,WUHU216DAVISVP2,2013-01-08 05:07:00,
2013-01-08 00:12:00,32.4,25.7,30.34,West,271,3.0,8.0,76,0.00,,,0.00,WUHU216DAVISVP2,2013-01-08 05:12:00,
2013-01-08 00:17:00,32.5,25.8,30.34,SW,231,6.0,6.0,76,0.00,,,0.00,WUHU216DAVISVP2,2013-01-08 05:17:00,
2013-01-08 00:22:00,32.5,25.8,30.34,West,264,2.0,6.0,76,0.00,,,0.00,WUHU216DAVISVP2,2013-01-08 05:22:00,
2013-01-08 00:27:00,32.6,25.9,30.34,West,259,6.0,7.0,76,0.00,,,0.00,WUHU216DAVISVP2,2013-01-08 05:27:00,
2013-01-08 00:32:00,32.9,25.9,30.34,WNW,285,3.0,8.0,75,0.00,,,0.00,WUHU216DAVISVP2,2013-01-08 05:32:00,
2013-01-08 00:37:00,33.1,26.1,30.34,WNW,285,4.0,8.0,75,0.00,,,0.00,WUHU216DAVISVP2,2013-01-08 05:37:00,
2013-01-08 00:42:00,33.1,26.1,30.34,SW,224,2.0,8.0,75,0.00,,,0.00,WUHU216DAVISVP2,2013-01-08 05:42:00,
2013-01-08 00:47:00,32.9,25.9,30.34,SW,235,3.0,7.0,75,0.00,,,0.00,WUHU216DAVISVP2,2013-01-08 05:47:00,
2013-01-08 00:52:00,32.6,25.3,30.34,SE,139,1.0,6.0,74,0.00,,,0.00,WUHU216DAVISVP2,2013-01-08 05:52:00,
2013-01-08 00:57:00,31.9,24.9,30.34,South,181,0.0,3.0,75,0.00,,,0.00,WUHU216DAVISVP2,2013-01-08 05:57:00,
2013-01-08 01:02:00,31.4,25.1,30.33,SW,219,0.0,2.0,77,0.00,,,0.00,WUHU216DAVISVP2,2013-01-08 06:02:00,
2013-01-08 01:07:00,31.0,24.7,30.34,SW,217,0.0,2.0,77,0.00,,,0.00,WUHU216DAVISVP2,2013-01-08 06:07:00,
2013-01-08 01:12:00,30.7,24.7,30.34,WSW,238,1.0,4.0,78,0.00,,,0.00,WUHU216DAVISVP2,2013-01-08 06:12:00,
2013-01-08 01:17:00,30.6,24.9,30.34,WSW,248,2.0,4.0,79,0.00,,,0.00,WUHU216DAVISVP2,2013-01-08 06:17:00,
2013-01-08 01:22:00,30.7,24.7,30.34,SSE,158,0.0,6.0,78,0.00,,,0.00,WUHU216DAVISVP2,2013-01-08 06:22:00,
2013-01-08 01:27:00,30.4,24.4,30.34,ESE,102,0.0,6.0,78,0.00,,,0.00,WUHU216DAVISVP2,2013-01-08 06:27:00,
2013-01-08 01:32:00,29.9,24.2,30.34,SSE,159,0.0,1.0,79,0.00,,,0.00,WUHU216DAVISVP2,2013-01-08 06:32:00,
2013-01-08 01:37:00,29.6,24.2,30.34,SW,214,0.0,1.0,80,0.00,,,0.00,WUHU216DAVISVP2,2013-01-08 06:37:00,
2013-01-08 01:42:00,29.7,24.6,30.34,SW,235,2.0,3.0,81,0.00,,,0.00,WUHU216DAVISVP2,2013-01-08 06:42:00,
2013-01-08 01:47:00,30.0,24.9,30.34,SW,233,2.0,5.0,81,0.00,,,0.00,WUHU216DAVISVP2,2013-01-08 06:47:00,
2013-01-08 01:52:00,30.0,24.6,30.34,SW,235,1.0,5.0,80,0.00,,,0.00,WUHU216DAVISVP2,2013-01-08 06:52:00,
2013-01-08 01:57:00,30.2,24.8,30.34,SW,219,2.0,5.0,80,0.00,,,0.00,WUHU216DAVISVP2,2013-01-08 06:57:00,
2013-01-08 02:02:00,30.3,24.9,30.33,WSW,253,3.0,6.0,80,0.00,,,0.00,WUHU216DAVISVP2,2013-01-08 07:02:00,
2013-01-08 02:07:00,30.3,24.6,30.33,SSE,157,0.0,6.0,79,0.00,,,0.00,WUHU216DAVISVP2,2013-01-08 07:07:00,
2013-01-08 02:12:00,30.2,24.8,30.34,SSW,194,1.0,4.0,80,0.00,,,0.00,WUHU216DAVISVP2,2013-01-08 07:12:00,
2013-01-08 02:17:00,30.2,24.8,30.34,West,264,3.0,4.0,80,0.00,,,0.00,WUHU216DAVISVP2,2013-01-08 07:17:00,
2013-01-08 02:22:00,30.4,25.0,30.34,West,277,3.0,4.0,80,0.00,,,0.00,WUHU216DAVISVP2,2013-01-08 07:22:00,
2013-01-08 02:27:00,31.0,25.3,30.34,WNW,288,1.0,5.0,79,0.00,,,0.00,WUHU216DAVISVP2,2013-01-08 07:27:00,
2013-01-08 02:32:00,31.0,24.7,30.33,WSW,239,1.0,5.0,77,0.00,,,0.00,WUHU216DAVISVP2,2013-01-08 07:32:00,
2013-01-08 02:37:00,30.5,24.5,30.33,West,281,2.0,4.0,78,0.00,,,0.00,WUHU216DAVISVP2,2013-01-08 07:37:00,
2013-01-08 02:42:00,30.0,24.0,30.33,WSW,256,2.0,4.0,78,0.00,,,0.00,WUHU216DAVISVP2,2013-01-08 07:42:00,
2013-01-08 02:47:00,29.2,23.8,30.33,West,260,2.0,5.0,80,0.00,,,0.00,WUHU216DAVISVP2,2013-01-08 07:47:00,
2013-01-08 02:52:00,28.7,23.6,30.33,West,263,5.0,6.0,81,0.00,,,0.00,WUHU216DAVISVP2,2013-01-08 07:52:00,
2013-01-08 02:57:00,29.1,24.3,30.34,West,259,6.0,9.0,82,0.00,,,0.00,WUHU216DAVISVP2,2013-01-08 07:57:00,
2013-01-08 03:02:00,30.6,25.2,30.33,WSW,249,6.0,12.0,80,0.00,,,0.00,WUHU216DAVISVP2,2013-01-08 08:02:00,
2013-01-08 03:07:00,31.4,25.4,30.33,WNW,283,3.0,12.0,78,0.00,,,0.00,WUHU216DAVISVP2,2013-01-08 08:07:00,
2013-01-08 03:12:00,32.1,25.4,30.33,WSW,254,4.0,12.0,76,0.00,,,0.00,WUHU216DAVISVP2,2013-01-08 08:12:00,
2013-01-08 03:17:00,32.1,25.4,30.33,WNW,285,4.0,12.0,76,0.00,,,0.00,WUHU216DAVISVP2,2013-01-08 08:17:00,
2013-01-08 03:22:00,32.6,25.6,30.33,WSW,256,4.0,8.0,75,0.00,,,0.00,WUHU216DAVISVP2,2013-01-08 08:22:00,
2013-01-08 03:27:00,33.0,25.7,30.33,WSW,240,3.0,10.0,74,0.00,,,0.00,WUHU216DAVISVP2,2013-01-08 08:27:00,
2013-01-08 03:32:00,33.0,25.7,30.33,SW,234,9.0,10.0,74,0.00,,,0.00,WUHU216DAVISVP2,2013-01-08 08:32:00,
2013-01-08 03:37:00,32.5,25.2,30.32,WSW,238,5.0,9.0,74,0.00,,,0.00,WUHU216DAVISVP2,2013-01-08 08:37:00,
2013-01-08 03:42:00,31.6,24.6,30.32,SW,215,3.0,8.0,75,0.00,,,0.00,WUHU216DAVISVP2,2013-01-08 08:42:00,
2013-01-08 03:47:00,31.1,24.8,30.32,WSW,253,4.0,7.0,77,0.00,,,0.00,WUHU216DAVISVP2,2013-01-08 08:47:00,
2013-01-08 03:52:00,31.4,24.7,30.33,West,281,2.0,7.0,76,0.00,,,0.00,WUHU216DAVISVP2,2013-01-08 08:52:00,
2013-01-08 03:57:00,31.0,24.4,30.33,West,274,3.0,8.0,76,0.00,,,0.00,WUHU216DAVISVP2,2013-01-08 08:57:00,
2013-01-08 04:02:00,30.2,24.2,30.33,West,273,4.0,8.0,78,0.00,,,0.00,WUHU216DAVISVP2,2013-01-08 09:02:00,
2013-01-08 04:07:00,29.7,24.0,30.33,West,278,4.0,8.0,79,0.00,,,0.00,WUHU216DAVISVP2,2013-01-08 09:07:00,
2013-01-08 04:12:00,29.9,24.2,30.33,WNW,290,3.0,9.0,79,0.00,,,0.00,WUHU216DAVISVP2,2013-01-08 09:12:00,
2013-01-08 04:17:00,29.8,24.1,30.33,SW,229,5.0,9.0,79,0.00,,,0.00,WUHU216DAVISVP2,2013-01-08 09:17:00,
2013-01-08 04:22:00,30.3,24.6,30.33,SW,220,3.0,9.0,79,0.00,,,0.00,WUHU216DAVISVP2,2013-01-08 09:22:00,
2013-01-08 04:27:00,31.0,25.6,30.33,SW,217,7.0,15.0,80,0.00,,,0.00,WUHU216DAVISVP2,2013-01-08 09:27:00,
2013-01-08 04:32:00,32.9,26.2,30.33,ESE,115,3.0,15.0,76,0.00,,,0.00,WUHU216DAVISVP2,2013-01-08 09:32:00,
2013-01-08 04:37:00,33.9,26.2,30.33,SW,233,2.0,11.0,73,0.00,,,0.00,WUHU216DAVISVP2,2013-01-08 09:37:00,
2013-01-08 04:42:00,34.3,25.9,30.33,WSW,249,1.0,10.0,71,0.00,,,0.00,WUHU216DAVISVP2,2013-01-08 09:42:00,
2013-01-08 04:47:00,33.9,25.6,30.33,West,280,1.0,6.0,71,0.00,,,0.00,WUHU216DAVISVP2,2013-01-08 09:47:00,
2013-01-08 04:52:00,33.9,25.9,30.33,WNW,285,1.0,3.0,72,0.00,,,0.00,WUHU216DAVISVP2,2013-01-08 09:52:00,
2013-01-08 04:57:00,33.8,25.8,30.33,WSW,240,2.0,7.0,72,0.00,,,0.00,WUHU216DAVISVP2,2013-01-08 09:57:00,
2013-01-08 05:02:00,34.2,26.2,30.33,SSW,210,5.0,10.0,72,0.00,,,0.00,WUHU216DAVISVP2,2013-01-08 10:02:00,
2013-01-08 05:07:00,34.0,26.0,30.32,SW,229,2.0,10.0,72,0.00,,,0.00,WUHU216DAVISVP2,2013-01-08 10:07:00,
2013-01-08 05:12:00,33.8,25.8,30.32,South,185,1.0,7.0,72,0.00,,,0.00,WUHU216DAVISVP2,2013-01-08 10:12:00,
2013-01-08 05:17:00,34.1,26.4,30.32,SW,233,4.0,9.0,73,0.00,,,0.00,WUHU216DAVISVP2,2013-01-08 10:17:00,
2013-01-08 05:23:00,34.9,26.2,30.32,West,278,3.0,12.0,70,0.00,,,0.00,WUHU216DAVISVP2,2013-01-08 10:23:00,
2013-01-08 05:28:00,34.6,25.9,30.32,West,271,5.0,12.0,70,0.00,,,0.00,WUHU216DAVISVP2,2013-01-08 10:28:00,
2013-01-08 05:33:00,33.7,25.4,30.32,WNW,292,2.0,6.0,71,0.00,,,0.00,WUHU216DAVISVP2,2013-01-08 10:33:00,
2013-01-08 05:38:00,32.6,25.0,30.32,West,269,3.0,7.0,73,0.00,,,0.00,WUHU216DAVISVP2,2013-01-08 10:38:00,
2013-01-08 05:43:00,32.0,25.0,30.32,WSW,244,6.0,7.0,75,0.00,,,0.00,WUHU216DAVISVP2,2013-01-08 10:43:00,
2013-01-08 05:48:00,31.8,25.1,30.32,West,274,2.0,7.0,76,0.00,,,0.00,WUHU216DAVISVP2,2013-01-08 10:48:00,
2013-01-08 05:53:00,31.8,25.1,30.32,WSW,252,4.0,8.0,76,0.00,,,0.00,WUHU216DAVISVP2,2013-01-08 10:53:00,
2013-01-08 05:58:00,31.8,25.4,30.32,SSW,194,1.0,8.0,77,0.00,,,0.00,WUHU216DAVISVP2,2013-01-08 10:58:00,
2013-01-08 06:03:00,31.8,25.4,30.32,West,277,3.0,10.0,77,0.00,,,0.00,WUHU216DAVISVP2,2013-01-08 11:03:00,
2013-01-08 06:08:00,31.8,25.4,30.33,SW,232,3.0,10.0,77,0.00,,,0.00,WUHU216DAVISVP2,2013-01-08 11:08:00,
2013-01-08 06:13:00,31.8,25.4,30.33,West,277,5.0,10.0,77,0.00,,,0.00,WUHU216DAVISVP2,2013-01-08 11:13:00,
2013-01-08 06:18:00,32.2,25.8,30.34,SSW,210,4.0,9.0,77,0.00,,,0.00,WUHU216DAVISVP2,2013-01-08 11:18:00,
2013-01-08 06:24:00,33.1,26.1,30.34,WSW,246,3.0,16.0,75,0.00,,,0.00,WUHU216DAVISVP2,2013-01-08 11:24:00,
2013-01-08 06:28:00,33.7,27.3,30.34,SSW,201,11.0,16.0,77,0.00,,,0.00,WUHU216DAVISVP2,2013-01-08 11:28:00,
2013-01-08 06:34:00,36.1,28.3,30.34,SW,221,11.0,19.0,73,0.00,,,0.00,WUHU216DAVISVP2,2013-01-08 11:34:00,
2013-01-08 06:39:00,37.4,28.6,30.34,SSW,203,10.0,21.0,70,0.00,,,0.00,WUHU216DAVISVP2,2013-01-08 11:39:00,
2013-01-08 06:44:00,37.9,28.7,30.34,SW,214,13.0,21.0,69,0.00,,,0.00,WUHU216DAVISVP2,2013-01-08 11:44:00,
2013-01-08 06:49:00,38.5,28.6,30.34,SW,226,11.0,22.0,67,0.00,,,0.00,WUHU216DAVISVP2,2013-01-08 11:49:00,
2013-01-08 06:54:00,38.9,29.0,30.34,SW,229,20.0,22.0,67,0.00,,,0.00,WUHU216DAVISVP2,2013-01-08 11:54:00,
2013-01-08 06:59:00,38.9,28.6,30.34,SW,236,12.0,24.0,66,0.00,,,0.00,WUHU216DAVISVP2,2013-01-08 11:59:00,
2013-01-08 07:04:00,39.0,28.7,30.34,SW,229,14.0,24.0,66,0.00,,,0.00,WUHU216DAVISVP2,2013-01-08 12:04:00,
2013-01-08 07:09:00,39.1,28.8,30.34,SW,225,11.0,20.0,66,0.00,,,0.00,WUHU216DAVISVP2,2013-01-08 12:09:00,
2013-01-08 07:14:00,39.1,28.8,30.35,WSW,238,10.0,20.0,66,0.00,,,0.00,WUHU216DAVISVP2,2013-01-08 12:14:00,
2013-01-08 07:19:00,39.1,28.8,30.35,West,267,12.0,20.0,66,0.00,,,0.00,WUHU216DAVISVP2,2013-01-08 12:19:00,
2013-01-08 07:24:00,39.2,28.9,30.35,SSW,212,8.0,20.0,66,0.00,,,0.00,WUHU216DAVISVP2,2013-01-08 12:24:00,
2013-01-08 07:29:00,39.1,28.8,30.35,WSW,255,14.0,18.0,66,0.00,,,0.00,WUHU216DAVISVP2,2013-01-08 12:29:00,
2013-01-08 07:34:00,39.1,28.4,30.35,South,190,7.0,18.0,65,0.00,,,0.00,WUHU216DAVISVP2,2013-01-08 12:34:00,
2013-01-08 07:39:00,39.0,28.3,30.35,SW,232,7.0,17.0,65,0.00,,,0.00,WUHU216DAVISVP2,2013-01-08 12:39:00,
2013-01-08 07:44:00,38.9,28.6,30.35,SW,229,6.0,17.0,66,0.00,,,0.00,WUHU216DAVISVP2,2013-01-08 12:44:00,
2013-01-08 07:49:00,38.7,28.4,30.36,SW,231,4.0,12.0,66,0.00,,,0.00,WUHU216DAVISVP2,2013-01-08 12:49:00,
2013-01-08 07:54:00,38.7,28.4,30.36,SW,231,8.0,12.0,66,0.00,,,0.00,WUHU216DAVISVP2,2013-01-08 12:54:00,
2013-01-08 07:59:00,38.6,28.3,30.36,SSE,168,7.0,14.0,66,0.00,,,0.00,WUHU216DAVISVP2,2013-01-08 12:59:00,
2013-01-08 08:04:00,38.7,28.4,30.35,WSW,257,4.0,14.0,66,0.00,,,0.00,WUHU216DAVISVP2,2013-01-08 13:04:00,
2013-01-08 08:09:00,38.8,28.5,30.36,WSW,242,3.0,14.0,66,0.00,,,0.00,WUHU216DAVISVP2,2013-01-08 13:09:00,
2013-01-08 08:14:00,38.5,28.2,30.36,West,275,3.0,11.0,66,0.00,,,0.00,WUHU216DAVISVP2,2013-01-08 13:14:00,
2013-01-08 08:19:00,38.0,28.1,30.36,West,270,5.0,9.0,67,0.00,,,0.00,WUHU216DAVISVP2,2013-01-08 13:19:00,
2013-01-08 08:24:00,37.4,27.9,30.36,West,264,4.0,9.0,68,0.00,,,0.00,WUHU216DAVISVP2,2013-01-08 13:24:00,
2013-01-08 08:29:00,37.1,27.6,30.36,West,278,4.0,10.0,68,0.00,,,0.00,WUHU216DAVISVP2,2013-01-08 13:29:00,
2013-01-08 08:34:00,37.4,28.2,30.37,NW,307,5.0,11.0,69,0.00,,,0.00,WUHU216DAVISVP2,2013-01-08 13:34:00,
2013-01-08 08:39:00,38.3,28.7,30.37,SW,228,13.0,14.0,68,0.00,,,0.00,WUHU216DAVISVP2,2013-01-08 13:39:00,
2013-01-08 08:44:00,39.4,28.7,30.37,SW,229,7.0,15.0,65,0.00,,,0.00,WUHU216DAVISVP2,2013-01-08 13:44:00,
2013-01-08 08:49:00,40.1,29.0,30.37,SSW,212,6.0,15.0,64,0.00,,,0.00,WUHU216DAVISVP2,2013-01-08 13:49:00,
2013-01-08 08:54:00,40.7,28.8,30.37,South,185,5.0,14.0,62,0.00,,,0.00,WUHU216DAVISVP2,2013-01-08 13:54:00,
2013-01-08 08:59:00,41.2,28.8,30.37,SSW,211,6.0,14.0,61,0.00,,,0.00,WUHU216DAVISVP2,2013-01-08 13:59:00,
2013-01-08 09:04:00,41.5,29.5,30.37,SW,229,2.0,11.0,62,0.00,,,0.00,WUHU216DAVISVP2,2013-01-08 14:04:00,
2013-01-08 09:09:00,41.7,29.7,30.37,SW,224,4.0,6.0,62,0.00,,,0.00,WUHU216DAVISVP2,2013-01-08 14:09:00,
2013-01-08 09:14:00,42.2,29.4,30.37,WSW,242,5.0,13.0,60,0.00,,,0.00,WUHU216DAVISVP2,2013-01-08 14:14:00,
2013-01-08 09:19:00,42.6,29.8,30.37,SW,226,6.0,13.0,60,0.00,,,0.00,WUHU216DAVISVP2,2013-01-08 14:19:00,
2013-01-08 09:24:00,42.9,29.2,30.37,SSW,198,4.0,10.0,58,0.00,,,0.00,WUHU216DAVISVP2,2013-01-08 14:24:00,
2013-01-08 09:29:00,43.2,29.5,30.38,SW,221,7.0,10.0,58,0.00,,,0.00,WUHU216DAVISVP2,2013-01-08 14:29:00,
2013-01-08 09:34:00,43.4,29.7,30.38,WSW,246,3.0,9.0,58,0.00,,,0.00,WUHU216DAVISVP2,2013-01-08 14:34:00,
2013-01-08 09:39:00,43.4,29.2,30.38,SW,219,4.0,8.0,57,0.00,,,0.00,WUHU216DAVISVP2,2013-01-08 14:39:00,
2013-01-08 09:44:00,43.5,28.9,30.38,WSW,238,9.0,13.0,56,0.00,,,0.00,WUHU216DAVISVP2,2013-01-08 14:44:00,
2013-01-08 09:49:00,43.5,28.4,30.38,SW,229,11.0,15.0,55,0.00,,,0.00,WUHU216DAVISVP2,2013-01-08 14:49:00,
2013-01-08 09:54:00,43.5,28.4,30.39,WSW,238,12.0,16.0,55,0.00,,,0.00,WUHU216DAVISVP2,2013-01-08 14:54:00,
2013-01-08 09:59:00,43.8,28.7,30.39,West,269,5.0,18.0,55,0.00,,,0.00,WUHU216DAVISVP2,2013-01-08 14:59:00,
2013-01-08 10:04:00,43.9,28.8,30.39,SW,229,7.0,18.0,55,0.00,,,0.00,WUHU216DAVISVP2,2013-01-08 15:04:00,
2013-01-08 10:09:00,44.0,28.9,30.39,WSW,243,5.0,16.0,55,0.00,,,0.00,WUHU216DAVISVP2,2013-01-08 15:09:00,
2013-01-08 10:14:00,44.2,29.1,30.39,SW,222,6.0,16.0,55,0.00,,,0.00,WUHU216DAVISVP2,2013-01-08 15:14:00,
2013-01-08 10:19:00,44.5,28.4,30.38,West,276,4.0,10.0,53,0.00,,,0.00,WUHU216DAVISVP2,2013-01-08 15:19:00,
2013-01-08 10:24:00,44.7,29.1,30.38,NW,319,4.0,10.0,54,0.00,,,0.00,WUHU216DAVISVP2,2013-01-08 15:24:00,
2013-01-08 10:29:00,44.7,28.1,30.38,WSW,238,5.0,10.0,52,0.00,,,0.00,WUHU216DAVISVP2,2013-01-08 15:29:00,
2013-01-08 10:34:00,44.7,29.1,30.37,West,260,4.0,11.0,54,0.00,,,0.00,WUHU216DAVISVP2,2013-01-08 15:34:00,
2013-01-08 10:39:00,44.9,29.3,30.37,SW,224,4.0,11.0,54,0.00,,,0.00,WUHU216DAVISVP2,2013-01-08 15:39:00,
2013-01-08 10:44:00,45.0,28.9,30.37,WSW,243,8.0,10.0,53,0.00,,,0.00,WUHU216DAVISVP2,2013-01-08 15:44:00,
2013-01-08 10:49:00,44.9,28.3,30.37,WSW,248,6.0,10.0,52,0.00,,,0.00,WUHU216DAVISVP2,2013-01-08 15:49:00,
2013-01-08 10:54:00,45.0,28.9,30.37,WSW,249,4.0,10.0,53,0.00,,,0.00,WUHU216DAVISVP2,2013-01-08 15:54:00,
2013-01-08 10:59:00,45.2,28.6,30.38,West,275,3.0,10.0,52,0.00,,,0.00,WUHU216DAVISVP2,2013-01-08 15:59:00,
2013-01-08 11:04:00,45.4,28.3,30.37,WNW,283,4.0,10.0,51,0.00,,,0.00,WUHU216DAVISVP2,2013-01-08 16:04:00,
2013-01-08 11:09:00,45.8,29.2,30.38,WNW,290,5.0,11.0,52,0.00,,,0.00,WUHU216DAVISVP2,2013-01-08 16:09:00,
2013-01-08 11:14:00,45.8,28.7,30.37,SW,228,11.0,12.0,51,0.00,,,0.00,WUHU216DAVISVP2,2013-01-08 16:14:00,
2013-01-08 11:19:00,46.0,28.4,30.37,WSW,245,6.0,14.0,50,0.00,,,0.00,WUHU216DAVISVP2,2013-01-08 16:19:00,
2013-01-08 11:24:00,46.4,29.2,30.37,West,269,6.0,14.0,51,0.00,,,0.00,WUHU216DAVISVP2,2013-01-08 16:24:00,
2013-01-08 11:29:00,46.7,28.5,30.37,WNW,285,6.0,11.0,49,0.00,,,0.00,WUHU216DAVISVP2,2013-01-08 16:29:00,
2013-01-08 11:34:00,46.7,29.0,30.37,West,267,7.0,11.0,50,0.00,,,0.00,WUHU216DAVISVP2,2013-01-08 16:34:00,
2013-01-08 11:39:00,46.9,28.7,30.37,WSW,252,6.0,11.0,49,0.00,,,0.00,WUHU216DAVISVP2,2013-01-08 16:39:00,
2013-01-08 11:44:00,47.0,27.7,30.36,WSW,248,6.0,15.0,47,0.00,,,0.00,WUHU216DAVISVP2,2013-01-08 16:44:00,
2013-01-08 11:49:00,47.3,28.0,30.36,SW,231,7.0,15.0,47,0.00,,,0.00,WUHU216DAVISVP2,2013-01-08 16:49:00,
2013-01-08 11:54:00,47.7,28.4,30.35,SW,225,8.0,12.0,47,0.00,,,0.00,WUHU216DAVISVP2,2013-01-08 16:54:00,
2013-01-08 11:59:00,48.0,28.1,30.35,WSW,238,8.0,11.0,46,0.00,,,0.00,WUHU216DAVISVP2,2013-01-08 16:59:00,
2013-01-08 12:04:00,48.2,27.7,30.34,SW,226,7.0,12.0,45,0.00,,,0.00,WUHU216DAVISVP2,2013-01-08 17:04:00,
2013-01-08 12:09:00,48.3,27.8,30.35,West,270,6.0,12.0,45,0.00,,,0.00,WUHU216DAVISVP2,2013-01-08 17:09:00,
2013-01-08 12:14:00,48.6,29.2,30.34,WSW,243,7.0,11.0,47,0.00,,,0.00,WUHU216DAVISVP2,2013-01-08 17:14:00,
2013-01-08 12:19:00,49.2,28.1,30.34,WNW,302,4.0,7.0,44,0.00,,,0.00,WUHU216DAVISVP2,2013-01-08 17:19:00,
2013-01-08 12:24:00,49.5,27.8,30.33,WSW,253,5.0,10.0,43,0.00,,,0.00,WUHU216DAVISVP2,2013-01-08 17:24:00,
2013-01-08 12:29:00,49.8,26.9,30.33,South,184,3.0,10.0,41,0.00,,,0.00,WUHU216DAVISVP2,2013-01-08 17:29:00,
2013-01-08 12:34:00,50.4,28.6,30.33,WSW,243,3.0,9.0,43,0.00,,,0.00,WUHU216DAVISVP2,2013-01-08 17:34:00,
2013-01-08 12:39:00,50.6,27.6,30.33,WNW,285,5.0,8.0,41,0.00,,,0.00,WUHU216DAVISVP2,2013-01-08 17:39:00,
2013-01-08 12:44:00,50.6,27.0,30.32,West,263,1.0,8.0,40,0.00,,,0.00,WUHU216DAVISVP2,2013-01-08 17:44:00,
2013-01-08 12:49:00,51.1,27.4,30.32,SSW,211,5.0,7.0,40,0.00,,,0.00,WUHU216DAVISVP2,2013-01-08 17:49:00,
2013-01-08 12:54:00,51.6,27.2,30.32,SW,220,3.0,7.0,39,0.00,,,0.00,WUHU216DAVISVP2,2013-01-08 17:54:00,
2013-01-08 12:59:00,51.9,27.5,30.32,SW,233,4.0,8.0,39,0.00,,,0.00,WUHU216DAVISVP2,2013-01-08 17:59:00,
2013-01-08 13:04:00,51.9,26.2,30.32,SW,218,2.0,8.0,37,0.00,,,0.00,WUHU216DAVISVP2,2013-01-08 18:04:00,
2013-01-08 13:09:00,51.7,26.7,30.31,SW,231,7.0,8.0,38,0.00,,,0.00,WUHU216DAVISVP2,2013-01-08 18:09:00,
2013-01-08 13:14:00,52.0,27.0,30.32,WNW,282,2.0,8.0,38,0.00,,,0.00,WUHU216DAVISVP2,2013-01-08 18:14:00,
2013-01-08 13:19:00,52.1,26.4,30.32,SW,227,4.0,7.0,37,0.00,,,0.00,WUHU216DAVISVP2,2013-01-08 18:19:00,
2013-01-08 13:24:00,52.2,25.1,30.32,SW,228,5.0,13.0,35,0.00,,,0.00,WUHU216DAVISVP2,2013-01-08 18:24:00,
2013-01-08 13:29:00,52.6,26.2,30.32,SSW,203,5.0,13.0,36,0.00,,,0.00,WUHU216DAVISVP2,2013-01-08 18:29:00,
2013-01-08 13:34:00,52.7,26.9,30.32,West,273,2.0,11.0,37,0.00,,,0.00,WUHU216DAVISVP2,2013-01-08 18:34:00,
2013-01-08 13:39:00,52.8,26.3,30.31,WSW,249,5.0,11.0,36,0.00,,,0.00,WUHU216DAVISVP2,2013-01-08 18:39:00,
2013-01-08 13:44:00,52.6,26.2,30.31,WSW,246,2.0,9.0,36,0.00,,,0.00,WUHU216DAVISVP2,2013-01-08 18:44:00,
2013-01-08 13:49:00,52.8,25.7,30.31,West,266,6.0,7.0,35,0.00,,,0.00,WUHU216DAVISVP2,2013-01-08 18:49:00,
2013-01-08 13:54:00,52.3,25.2,30.31,WNW,285,2.0,8.0,35,0.00,,,0.00,WUHU216DAVISVP2,2013-01-08 18:54:00,
2013-01-08 13:59:00,52.2,25.1,30.31,WNW,288,5.0,8.0,35,0.00,,,0.00,WUHU216DAVISVP2,2013-01-08 18:59:00,
2013-01-08 14:04:00,52.2,25.8,30.30,WSW,253,1.0,6.0,36,0.00,,,0.00,WUHU216DAVISVP2,2013-01-08 19:04:00,
2013-01-08 14:09:00,52.4,26.7,30.30,WNW,293,1.0,5.0,37,0.00,,,0.00,WUHU216DAVISVP2,2013-01-08 19:09:00,
2013-01-08 14:14:00,53.0,26.5,30.30,NNE,29,1.0,3.0,36,0.00,,,0.00,WUHU216DAVISVP2,2013-01-08 19:14:00,
2013-01-08 14:19:00,53.7,27.1,30.30,WSW,249,5.0,7.0,36,0.00,,,0.00,WUHU216DAVISVP2,2013-01-08 19:19:00,
2013-01-08 14:24:00,53.8,26.5,30.30,SSE,156,2.0,11.0,35,0.00,,,0.00,WUHU216DAVISVP2,2013-01-08 19:24:00,
2013-01-08 14:29:00,53.6,27.1,30.30,South,191,5.0,11.0,36,0.00,,,0.00,WUHU216DAVISVP2,2013-01-08 19:29:00,
2013-01-08 14:34:00,53.9,28.0,30.30,SW,218,5.0,14.0,37,0.00,,,0.00,WUHU216DAVISVP2,2013-01-08 19:34:00,
2013-01-08 14:39:00,54.3,27.0,30.30,SSW,195,7.0,14.0,35,0.00,,,0.00,WUHU216DAVISVP2,2013-01-08 19:39:00,
2013-01-08 14:44:00,54.5,27.9,30.30,SW,232,10.0,14.0,36,0.00,,,0.00,WUHU216DAVISVP2,2013-01-08 19:44:00,
2013-01-08 14:49:00,54.6,26.6,30.30,SW,225,5.0,13.0,34,0.00,,,0.00,WUHU216DAVISVP2,2013-01-08 19:49:00,
2013-01-08 14:54:00,54.5,27.2,30.30,SSW,210,4.0,16.0,35,0.00,,,0.00,WUHU216DAVISVP2,2013-01-08 19:54:00,
2013-01-08 14:59:00,54.4,27.8,30.30,South,181,4.0,16.0,36,0.00,,,0.00,WUHU216DAVISVP2,2013-01-08 19:59:00,
2013-01-08 15:04:00,54.5,26.5,30.30,West,277,2.0,9.0,34,0.00,,,0.00,WUHU216DAVISVP2,2013-01-08 20:04:00,
2013-01-08 15:09:00,54.7,27.3,30.30,South,188,5.0,7.0,35,0.00,,,0.00,WUHU216DAVISVP2,2013-01-08 20:09:00,
2013-01-08 15:14:00,55.0,26.9,30.30,West,263,7.0,9.0,34,0.00,,,0.00,WUHU216DAVISVP2,2013-01-08 20:14:00,
2013-01-08 15:19:00,54.8,27.4,30.30,SW,224,7.0,11.0,35,0.00,,,0.00,WUHU216DAVISVP2,2013-01-08 20:19:00,
2013-01-08 15:24:00,54.4,27.1,30.30,WSW,253,10.0,12.0,35,0.00,,,0.00,WUHU216DAVISVP2,2013-01-08 20:24:00,
2013-01-08 15:29:00,54.2,26.9,30.30,West,276,3.0,12.0,35,0.00,,,0.00,WUHU216DAVISVP2,2013-01-08 20:29:00,
2013-01-08 15:34:00,54.3,27.0,30.30,SW,229,6.0,12.0,35,0.00,,,0.00,WUHU216DAVISVP2,2013-01-08 20:34:00,
2013-01-08 15:39:00,54.3,27.7,30.31,SW,218,7.0,10.0,36,0.00,,,0.00,WUHU216DAVISVP2,2013-01-08 20:39:00,
2013-01-08 15:44:00,54.3,27.0,30.31,WSW,245,3.0,13.0,35,0.00,,,0.00,WUHU216DAVISVP2,2013-01-08 20:44:00,
2013-01-08 15:49:00,54.3,27.0,30.31,SW,234,6.0,13.0,35,0.00,,,0.00,WUHU216DAVISVP2,2013-01-08 20:49:00,
2013-01-08 15:54:00,54.3,27.0,30.31,SSE,166,5.0,10.0,35,0.00,,,0.00,WUHU216DAVISVP2,2013-01-08 20:54:00,
2013-01-08 15:59:00,54.1,26.8,30.31,South,176,5.0,11.0,35,0.00,,,0.00,WUHU216DAVISVP2,2013-01-08 20:59:00,
2013-01-08 16:04:00,53.9,26.6,30.31,South,190,6.0,11.0,35,0.00,,,0.00,WUHU216DAVISVP2,2013-01-08 21:04:00,
2013-01-08 16:09:00,53.7,25.8,30.30,SW,236,3.0,12.0,34,0.00,,,0.00,WUHU216DAVISVP2,2013-01-08 21:09:00,
2013-01-08 16:14:00,53.5,26.3,30.30,SW,235,5.0,12.0,35,0.00,,,0.00,WUHU216DAVISVP2,2013-01-08 21:14:00,
2013-01-08 16:19:00,53.3,26.8,30.31,SW,236,5.0,10.0,36,0.00,,,0.00,WUHU216DAVISVP2,2013-01-08 21:19:00,
2013-01-08 16:24:00,53.2,25.3,30.31,SW,225,5.0,8.0,34,0.00,,,0.00,WUHU216DAVISVP2,2013-01-08 21:24:00,
2013-01-08 16:29:00,52.9,26.4,30.31,SSW,210,3.0,10.0,36,0.00,,,0.00,WUHU216DAVISVP2,2013-01-08 21:29:00,
2013-01-08 16:34:00,52.6,25.5,30.31,WSW,252,4.0,11.0,35,0.00,,,0.00,WUHU216DAVISVP2,2013-01-08 21:34:00,
2013-01-08 16:39:00,52.3,23.8,30.31,WSW,245,4.0,11.0,33,0.00,,,0.00,WUHU216DAVISVP2,2013-01-08 21:39:00,
2013-01-08 16:44:00,52.1,25.0,30.31,SSW,201,0.0,10.0,35,0.00,,,0.00,WUHU216DAVISVP2,2013-01-08 21:44:00,
2013-01-08 16:49:00,51.9,24.2,30.31,SSW,201,5.0,9.0,34,0.00,,,0.00,WUHU216DAVISVP2,2013-01-08 21:49:00,
2013-01-08 16:54:00,51.6,24.6,30.31,SW,232,4.0,9.0,35,0.00,,,0.00,WUHU216DAVISVP2,2013-01-08 21:54:00,
2013-01-08 16:59:00,51.0,24.1,30.31,SSW,201,4.0,7.0,35,0.00,,,0.00,WUHU216DAVISVP2,2013-01-08 21:59:00,
2013-01-08 17:04:00,50.4,24.2,30.31,WSW,252,5.0,9.0,36,0.00,,,0.00,WUHU216DAVISVP2,2013-01-08 22:04:00,
2013-01-08 17:09:00,49.9,24.4,30.32,SW,216,4.0,9.0,37,0.00,,,0.00,WUHU216DAVISVP2,2013-01-08 22:09:00,
2013-01-08 17:14:00,49.6,25.4,30.32,SSW,193,3.0,9.0,39,0.00,,,0.00,WUHU216DAVISVP2,2013-01-08 22:14:00,
2013-01-08 17:19:00,49.1,25.0,30.32,SW,224,7.0,8.0,39,0.00,,,0.00,WUHU216DAVISVP2,2013-01-08 22:19:00,
2013-01-08 17:24:00,48.8,25.3,30.32,SW,219,0.0,8.0,40,0.00,,,0.00,WUHU216DAVISVP2,2013-01-08 22:24:00,
2013-01-08 17:29:00,48.2,25.4,30.32,SW,228,0.0,8.0,41,0.00,,,0.00,WUHU216DAVISVP2,2013-01-08 22:29:00,
2013-01-08 17:34:00,47.5,24.2,30.32,SW,216,3.0,7.0,40,0.00,,,0.00,WUHU216DAVISVP2,2013-01-08 22:34:00,
2013-01-08 17:39:00,47.3,25.8,30.32,SSW,197,2.0,7.0,43,0.00,,,0.00,WUHU216DAVISVP2,2013-01-08 22:39:00,
2013-01-08 17:44:00,46.7,25.8,30.32,SW,235,2.0,6.0,44,0.00,,,0.00,WUHU216DAVISVP2,2013-01-08 22:44:00,
2013-01-08 17:49:00,46.1,25.8,30.33,South,191,3.0,7.0,45,0.00,,,0.00,WUHU216DAVISVP2,2013-01-08 22:49:00,
2013-01-08 17:54:00,46.2,25.9,30.34,SW,231,5.0,7.0,45,0.00,,,0.00,WUHU216DAVISVP2,2013-01-08 22:54:00,
2013-01-08 17:59:00,46.4,26.1,30.34,SW,233,5.0,8.0,45,0.00,,,0.00,WUHU216DAVISVP2,2013-01-08 22:59:00,
2013-01-08 18:04:00,46.6,26.8,30.33,South,188,3.0,8.0,46,0.00,,,0.00,WUHU216DAVISVP2,2013-01-08 23:04:00,
2013-01-08 18:09:00,46.1,26.9,30.33,SSW,207,1.0,7.0,47,0.00,,,0.00,WUHU216DAVISVP2,2013-01-08 23:09:00,
2013-01-08 18:14:00,45.1,27.0,30.33,SW,219,1.0,5.0,49,0.00,,,0.00,WUHU216DAVISVP2,2013-01-08 23:14:00,
2013-01-08 18:19:00,44.5,26.5,30.34,WSW,240,2.0,5.0,49,0.00,,,0.00,WUHU216DAVISVP2,2013-01-08 23:19:00,
2013-01-08 18:24:00,44.5,26.5,30.34,West,276,2.0,4.0,49,0.00,,,0.00,WUHU216DAVISVP2,2013-01-08 23:24:00,
2013-01-08 18:29:00,44.7,26.6,30.33,WSW,243,0.0,4.0,49,0.00,,,0.00,WUHU216DAVISVP2,2013-01-08 23:29:00,
2013-01-08 18:34:00,44.5,26.5,30.34,WSW,242,0.0,2.0,49,0.00,,,0.00,WUHU216DAVISVP2,2013-01-08 23:34:00,
2013-01-08 18:39:00,44.2,26.7,30.34,WSW,242,0.0,2.0,50,0.00,,,0.00,WUHU216DAVISVP2,2013-01-08 23:39:00,
2013-01-08 18:44:00,43.9,27.4,30.34,West,269,0.0,1.0,52,0.00,,,0.00,WUHU216DAVISVP2,2013-01-08 23:44:00,
2013-01-08 18:49:00,43.7,27.7,30.34,West,269,0.0,1.0,53,0.00,,,0.00,WUHU216DAVISVP2,2013-01-08 23:49:00,
2013-01-08 18:54:00,43.3,27.3,30.34,West,269,0.0,1.0,53,0.00,,,0.00,WUHU216DAVISVP2,2013-01-08 23:54:00,
2013-01-08 18:59:00,42.7,27.2,30.34,West,269,0.0,1.0,54,0.00,,,0.00,WUHU216DAVISVP2,2013-01-08 23:59:00,
2013-01-08 19:04:00,42.1,27.1,30.33,West,269,0.0,1.0,55,0.00,,,0.00,WUHU216DAVISVP2,2013-01-09 00:04:00,
2013-01-08 19:09:00,41.5,27.0,30.33,West,267,0.0,1.0,56,0.00,,,0.00,WUHU216DAVISVP2,2013-01-09 00:09:00,
2013-01-08 19:14:00,40.9,26.4,30.34,SSW,198,0.0,1.0,56,0.00,,,0.00,WUHU216DAVISVP2,2013-01-09 00:14:00,
2013-01-08 19:19:00,40.4,26.4,30.34,SSW,197,0.0,1.0,57,0.00,,,0.00,WUHU216DAVISVP2,2013-01-09 00:19:00,
2013-01-08 19:24:00,39.9,26.4,30.34,SSW,197,0.0,0.0,58,0.00,,,0.00,WUHU216DAVISVP2,2013-01-09 00:24:00,
2013-01-08 19:29:00,39.5,27.2,30.34,SSW,197,0.0,0.0,61,0.00,,,0.00,WUHU216DAVISVP2,2013-01-09 00:29:00,
2013-01-08 19:34:00,39.1,27.2,30.33,SSW,197,0.0,0.0,62,0.00,,,0.00,WUHU216DAVISVP2,2013-01-09 00:34:00,
2013-01-08 19:39:00,38.8,27.4,30.33,SW,215,0.0,0.0,63,0.00,,,0.00,WUHU216DAVISVP2,2013-01-09 00:39:00,
2013-01-08 19:44:00,38.6,27.5,30.34,SW,216,0.0,0.0,64,0.00,,,0.00,WUHU216DAVISVP2,2013-01-09 00:44:00,
2013-01-08 19:49:00,38.2,27.5,30.33,SE,141,0.0,1.0,65,0.00,,,0.00,WUHU216DAVISVP2,2013-01-09 00:49:00,
2013-01-08 19:54:00,37.8,26.8,30.33,SE,141,0.0,1.0,64,0.00,,,0.00,WUHU216DAVISVP2,2013-01-09 00:54:00,
2013-01-08 19:59:00,37.5,26.5,30.34,SE,142,0.0,1.0,64,0.00,,,0.00,WUHU216DAVISVP2,2013-01-09 00:59:00,
2013-01-08 20:04:00,37.4,27.2,30.34,South,185,1.0,1.0,66,0.00,,,0.00,WUHU216DAVISVP2,2013-01-09 01:04:00,
2013-01-08 20:09:00,37.6,27.3,30.33,South,185,1.0,2.0,66,0.00,,,0.00,WUHU216DAVISVP2,2013-01-09 01:09:00,
2013-01-08 20:14:00,37.9,27.3,30.34,SW,222,1.0,2.0,65,0.00,,,0.00,WUHU216DAVISVP2,2013-01-09 01:14:00,
2013-01-08 20:19:00,38.3,28.0,30.34,SW,223,1.0,3.0,66,0.00,,,0.00,WUHU216DAVISVP2,2013-01-09 01:19:00,
2013-01-08 20:24:00,38.5,28.2,30.34,SW,219,2.0,3.0,66,0.00,,,0.00,WUHU216DAVISVP2,2013-01-09 01:24:00,
2013-01-08 20:29:00,38.6,28.7,30.34,WSW,252,1.0,3.0,67,0.00,,,0.00,WUHU216DAVISVP2,2013-01-09 01:29:00,
2013-01-08 20:34:00,38.6,28.7,30.34,West,262,1.0,3.0,67,0.00,,,0.00,WUHU216DAVISVP2,2013-01-09 01:34:00,
2013-01-08 20:39:00,38.6,29.0,30.35,West,277,0.0,3.0,68,0.00,,,0.00,WUHU216DAVISVP2,2013-01-09 01:39:00,
2013-01-08 20:44:00,38.5,28.9,30.35,West,264,1.0,3.0,68,0.00,,,0.00,WUHU216DAVISVP2,2013-01-09 01:44:00,
2013-01-08 20:49:00,38.3,28.7,30.35,WSW,246,1.0,3.0,68,0.00,,,0.00,WUHU216DAVISVP2,2013-01-09 01:49:00,
2013-01-08 20:55:00,38.1,28.5,30.35,SSW,198,1.0,3.0,68,0.00,,,0.00,WUHU216DAVISVP2,2013-01-09 01:55:00,
2013-01-08 21:00:00,37.7,28.5,30.34,SW,225,0.0,2.0,69,0.00,,,0.00,WUHU216DAVISVP2,2013-01-09 02:00:00,
2013-01-08 21:05:00,37.4,28.2,30.34,SSW,200,1.0,2.0,69,0.00,,,0.00,WUHU216DAVISVP2,2013-01-09 02:05:00,
2013-01-08 21:09:00,37.1,27.9,30.35,SSW,204,0.0,2.0,69,0.00,,,0.00,WUHU216DAVISVP2,2013-01-09 02:09:00,
2013-01-08 21:15:00,37.0,27.8,30.35,SSW,197,1.0,2.0,69,0.00,,,0.00,WUHU216DAVISVP2,2013-01-09 02:15:00,
2013-01-08 21:20:00,37.1,27.6,30.35,South,174,0.0,2.0,68,0.00,,,0.00,WUHU216DAVISVP2,2013-01-09 02:20:00,
2013-01-08 21:25:00,37.4,28.2,30.35,SW,236,1.0,2.0,69,0.00,,,0.00,WUHU216DAVISVP2,2013-01-09 02:25:00,
2013-01-08 21:30:00,37.7,28.2,30.35,WSW,245,0.0,1.0,68,0.00,,,0.00,WUHU216DAVISVP2,2013-01-09 02:30:00,
2013-01-08 21:35:00,37.5,28.0,30.35,SW,236,0.0,1.0,68,0.00,,,0.00,WUHU216DAVISVP2,2013-01-09 02:35:00,
2013-01-08 21:40:00,37.2,28.0,30.34,SW,236,0.0,1.0,69,0.00,,,0.00,WUHU216DAVISVP2,2013-01-09 02:40:00,
2013-01-08 21:45:00,37.1,28.3,30.34,WSW,254,0.0,2.0,70,0.00,,,0.00,WUHU216DAVISVP2,2013-01-09 02:45:00,
2013-01-08 21:50:00,37.2,28.4,30.34,West,259,0.0,2.0,70,0.00,,,0.00,WUHU216DAVISVP2,2013-01-09 02:50:00,
2013-01-08 21:55:00,37.3,28.1,30.35,SW,235,1.0,1.0,69,0.00,,,0.00,WUHU216DAVISVP2,2013-01-09 02:55:00,
2013-01-08 22:00:00,37.3,28.1,30.34,SW,235,0.0,1.0,69,0.00,,,0.00,WUHU216DAVISVP2,2013-01-09 03:00:00,
2013-01-08 22:05:00,37.2,28.0,30.35,West,273,0.0,1.0,69,0.00,,,0.00,WUHU216DAVISVP2,2013-01-09 03:05:00,
2013-01-08 22:10:00,37.1,28.3,30.35,WSW,257,1.0,2.0,70,0.00,,,0.00,WUHU216DAVISVP2,2013-01-09 03:10:00,
2013-01-08 22:15:00,37.1,28.3,30.35,West,259,1.0,3.0,70,0.00,,,0.00,WUHU216DAVISVP2,2013-01-09 03:15:00,
2013-01-08 22:20:00,37.2,28.4,30.35,WSW,240,0.0,3.0,70,0.00,,,0.00,WUHU216DAVISVP2,2013-01-09 03:20:00,
2013-01-08 22:25:00,36.9,28.1,30.35,WSW,245,0.0,2.0,70,0.00,,,0.00,WUHU216DAVISVP2,2013-01-09 03:25:00,
2013-01-08 22:30:00,36.6,28.2,30.35,WSW,254,3.0,3.0,71,0.00,,,0.00,WUHU216DAVISVP2,2013-01-09 03:30:00,
2013-01-08 22:35:00,36.4,28.0,30.35,WSW,240,1.0,3.0,71,0.00,,,0.00,WUHU216DAVISVP2,2013-01-09 03:35:00,
2013-01-08 22:40:00,36.2,27.8,30.35,SW,226,1.0,3.0,71,0.00,,,0.00,WUHU216DAVISVP2,2013-01-09 03:40:00,
2013-01-08 22:45:00,35.6,27.5,30.35,SW,232,0.0,2.0,72,0.00,,,0.00,WUHU216DAVISVP2,2013-01-09 03:45:00,
2013-01-08 22:50:00,35.1,27.4,30.34,SSW,197,1.0,3.0,73,0.00,,,0.00,WUHU216DAVISVP2,2013-01-09 03:50:00,
2013-01-08 22:55:00,34.7,27.3,30.34,SSW,200,2.0,3.0,74,0.00,,,0.00,WUHU216DAVISVP2,2013-01-09 03:55:00,
2013-01-08 23:00:00,34.7,27.3,30.34,SSW,212,0.0,2.0,74,0.00,,,0.00,WUHU216DAVISVP2,2013-01-09 04:00:00,
2013-01-08 23:05:00,34.7,27.0,30.34,SW,224,0.0,2.0,73,0.00,,,0.00,WUHU216DAVISVP2,2013-01-09 04:05:00,
2013-01-08 23:10:00,34.6,26.6,30.33,SW,224,0.0,1.0,72,0.00,,,0.00,WUHU216DAVISVP2,2013-01-09 04:10:00,
2013-01-08 23:15:00,34.5,27.1,30.33,West,274,1.0,1.0,74,0.00,,,0.00,WUHU216DAVISVP2,2013-01-09 04:15:00,
2013-01-08 23:20:00,34.7,27.6,30.34,West,281,2.0,2.0,75,0.00,,,0.00,WUHU216DAVISVP2,2013-01-09 04:20:00,
2013-01-08 23:25:00,34.5,27.1,30.34,West,268,3.0,4.0,74,0.00,,,0.00,WUHU216DAVISVP2,2013-01-09 04:25:00,
2013-01-08 23:30:00,33.6,26.9,30.34,WSW,255,1.0,5.0,76,0.00,,,0.00,WUHU216DAVISVP2,2013-01-09 04:30:00,
2013-01-08 23:35:00,32.5,26.1,30.34,SW,224,4.0,5.0,77,0.00,,,0.00,WUHU216DAVISVP2,2013-01-09 04:35:00,
2013-01-08 23:40:00,31.8,26.0,30.34,SSW,194,1.0,4.0,79,0.00,,,0.00,WUHU216DAVISVP2,2013-01-09 04:40:00,
2013-01-08 23:45:00,31.3,26.1,30.34,WSW,240,2.0,4.0,81,0.00,,,0.00,WUHU216DAVISVP2,2013-01-09 04:45:00,
2013-01-08 23:50:00,31.0,25.9,30.34,SW,236,2.0,3.0,81,0.00,,,0.00,WUHU216DAVISVP2,2013-01-09 04:50:00,
2013-01-08 23:55:00,30.9,26.0,30.34,WSW,240,2.0,3.0,82,0.00,,,0.00,WUHU216DAVISVP2,2013-01-09 04:55:00,